This demonstration page uses our WeatherBlox Daily Observations layout. Learn more.

Left ArrowRight Arrow

Hourly Observations for November 21, 2021

Temp ( °F °C ) Dew Point ( °F °C ) Humidity (%) Winds ( mph kmh ) Pressure ( in mb ) Visibility ( mi km ) Precip ( " mm )
12:27 am 00:27 Partly Cloudy 24 -4.4 18 -7.8 77 77 E 5 7 30.53 1034 10 16 0.00 0.00
12:53 am 00:53 Mostly Cloudy 24 -4.4 18 -7.8 77 77 ENE 6 9 30.46 1031 10 16 0.00 0.00
1:53 am 01:53 Cloudy 23 -5 17 -8.3 78 78 NE 5 7 30.44 1031 10 16 0.00 0.00
2:23 am 02:23 Partly Cloudy 22 -5.6 17 -8.3 82 82 NE 6 9 30.53 1034 10 16 0.00 0.00
2:53 am 02:53 Mostly Clear 22 -5.6 16 -8.9 78 78 ENE 7 11 30.44 1031 10 16 0.00 0.00
3:53 am 03:53 Clear 22 -5.6 16 -8.9 78 78 ENE 6 9 30.45 1031 10 16 0.00 0.00
4:53 am 04:53 Mostly Clear 21 -6.1 15 -9.4 78 78 E 8 13 30.43 1030 10 16 0.00 0.00
5:53 am 05:53 Clear 21 -6.1 15 -9.4 78 78 ENE 8 13 30.42 1030 10 16 0.00 0.00
6:53 am 06:53 Clear 22 -5.6 17 -8.3 82 82 Calm 30.39 1029 10 16 0.00 0.00
7:53 am 07:53 Sunny 20 -6.7 17 -8.3 89 89 SW 5 7 30.39 1029 10 16 0.00 0.00
8:53 am 08:53 Mostly Sunny 21 -6.1 17 -8.3 85 85 SW 5 7 30.38 1029 10 16 0.00 0.00
9:53 am 09:53 Mostly Cloudy 24 -4.4 18 -7.8 77 77 Calm 30.37 1028 10 16 0.00 0.00
10:53 am 10:53 Cloudy 26 -3.3 19 -7.2 75 75 E 3 6 30.34 1027 10 16 0.00 0.00
11:53 am 11:53 Sunny 31 -0.6 21 -6.1 67 67 SE 3 6 30.29 1026 10 16 0.00 0.00
12:53 pm 12:53 Sunny 36 2.2 22 -5.6 57 57 Calm 30.25 1024 10 16 0.00 0.00
1:53 pm 13:53 Sunny 42 5.6 22 -5.6 45 45 SW 10 17 30.21 1023 10 16 0.00 0.00
2:53 pm 14:53 Partly Cloudy 43 6.1 22 -5.6 43 43 WSW 9 15 30.20 1023 10 16 0.00 0.00
3:53 pm 15:53 Mostly Sunny 40 4.4 23 -5 51 51 SW 9 15 30.19 1022 10 16 0.00 0.00
4:53 pm 16:53 Cloudy 41 5 24 -4.4 51 51 SW 13 20 30.18 1022 10 16 0.00 0.00
5:53 pm 17:53 Clear 36 2.2 23 -5 59 59 SW 14 22 30.19 1022 10 16 0.00 0.00
6:53 pm 18:53 Clear 36 2.2 23 -5 59 59 W 9 15 30.18 1022 10 16 0.00 0.00
7:53 pm 19:53 Clear 33 0.6 22 -5.6 64 64 W 6 9 30.19 1023 10 16 0.00 0.00
8:53 pm 20:53 Clear 33 0.6 21 -6.1 61 61 WSW 7 11 30.19 1022 10 16 0.00 0.00
9:53 pm 21:53 Clear 36 2.2 21 -6.1 55 55 W 8 13 30.17 1022 10 16 0.00 0.00
10:53 pm 22:53 Clear 37 2.8 21 -6.1 52 52 W 8 13 30.16 1021 10 16 0.00 0.00
11:53 pm 23:53 Clear 35 1.7 20 -6.7 54 54 W 8 13 30.16 1021 10 16 0.00 0.00

Powered by AerisWeather